DELTA 1 DEB, 10768

Orbit data source: Space-Track

DELTA 1 DEB, 10768 is space debris in SSO originally from a launch on Thu, 29 Jul 1976 UTC launched from the Air Force Western Test Range (AFWTR). Debris objects in space refer to the collection of defunct objects orbiting the Earth. Examples of debris include non-operational satellites, rocket bodies, and fragments generated from explosions, collisions, or faulty payload assembly.

Loading next visibility...
Identifier
10768, 1976-077BR
Orbit
SSO
Country
Flag of USUS
Related business
Manufacturer
Unknown
Mission
Spacecraft
Bus & Motor
Unknown
Mass
Unknown
Launch date (UTC)
1976-07-29 (50 years ago)
Launch vehicle
Unknown
Launch site
Air Force Western Test Range (AFWTR)
Object type
Payload
Rocket body
Debris
Shape & HBR
Unknown shape, 0.1 m
Radar Cross Section
Medium (>0.1 m² and <1 m²)

Expand to show TLE details & history
Last TLE update: 20 hours ago

TLE from 20 hours ago
0 DELTA 1 DEB
1 10768U 76077BR  26255.17328780  .00000044  00000-0  76159-3 0  9994
2 10768 102.3418 328.0303 0074215 156.0705 231.1907 12.28580299246859
Epoch: 2026-09-12T04:09Z
TLE epoch observation values (Epoch: 2026-09-12T04:09:32.065Z)
Latitude
25.97363°
Longitude
-91.62855°
Altitude
1,595.367 km
Speed
7.057 km/s
True Right ascension
21h 27m 45s
True Declination
25° 51' 10"
Sunlit
Object was in full shadow at epoch
Visualization orbit readout
Latitude
Unknown
Longitude
Unknown
Altitude
Unknown
Speed
Unknown
Apparent Right ascension
Unknown
Apparent Declination
Unknown
Sunlit
N/A
Visualization observer readout
Local Sidereal Time
16:32:58
Azimuth
Unknown
Elevation
Unknown
Doppler factor
Unknown
Orbital elements
Apogee altitude
1,611.858 km
Perigee altitude
1,494.136 km
Semi-major axis
7,931.134 km
Eccentricity
0.00742
Inclination
102.3418°
RAAN
328.0303°
Arg. of periapsis
156.0705°
True anomaly
230.53185°
Mean anomaly
231.1907°
Eccentric anomaly
230.86089°
Mean motion
3.07284 °/min
Orbital period
117.16 mins
BSTAR
0.00076159
Loading maneuver chart data...
Computing Atmospheric mass density...
Loading historical data...
Loading historical data...
Loading historical data...
Loading historical data...
Loading historical data...
Loading historical data...
Loading historical data...

Documentation

Showing up to 5 results
|